Content
SEND FEEDBACK

Daily
Averages
Monthly
Summary
United States of America

PYGA BEACH, GUAM


Home > North America > United States > Guam
Elevation: 20 feet     Latitude: 13 17N     Longitude: 144 39E

WEATHER
 
SELECT A DAY
Number of Records: 351,844;   Date Range: 1/1/95 - 10/23/14
 
SHARE

PRINT THIS DATA

[ ← Previous Day ]
WEATHER ALMANAC - MARCH 6, 2013
[ Next Day → ]
[ °C ]   °F
Weather ElementAverageHighLow
Temperature77.6 °F83.7 °F (11:55 am)74.7 °F (6:55 pm)
Dewpoint73.8 °F77 °F (12:22 pm)69.6 °F (5:55 am)
Humidity88.2 %100 % (1:36 pm)70 % (8:55 am)
Barometer29.86 in29.92 in (11:41 pm)29.81 in (3:37 pm)
Wind Speed18.4 mph27.6 mph (12:34 pm)
Wind Gust35.7 mph (6:40 pm)
Weather ElementAverage
Visibility7.2 mi
Wind DirectionENE (64.3 °)

Weather ElementTotal
Precipitation---
Cooling Degree Days14.2 (Base 65)
Growing Degree Days29.2 (Base 50)
Averaged from 148 records on March 6, 2013
WEATHER CONDITIONS BREAKOUT
WIND DIRECTION BREAKOUT
WEATHER BY HOUR - MARCH 6, 2013
[ °C ]   °F
Local TimeTemperatureDewpointHumidityBarometerVisibilityWind DirectionWind SpeedGust SpeedPrecipitationEventsConditions
1:00 AM77.0 °F71.6 °F83 %29.90 in10.0 miNE (50°)13.8 mphScattered Clouds
1:03 AM78.8 °F71.6 °F78 %29.90 in10.0 miNE (50°)12.7 mphMostly Cloudy
1:15 AM77.0 °F71.6 °F83 %29.89 in10.0 miENE (60°)15.0 mphMostly Cloudy
1:55 AM77.2 °F72.1 °F84 %29.89 in10.0 miENE (60°)15.0 mphPartly Cloudy
2:32 AM77.0 °F71.6 °F83 %29.87 in10.0 miENE (60°)12.7 mphMostly Cloudy
2:35 AM77.0 °F71.6 °F83 %29.87 in10.0 miENE (60°)13.8 mphMostly Cloudy
2:48 AM77.0 °F71.6 °F83 %29.86 in10.0 miNE (50°)15.0 mphMostly Cloudy
2:55 AM77.4 °F70.3 °F79 %29.86 in10.0 miENE (60°)12.7 mphMostly Cloudy
2:57 AM77.0 °F69.8 °F78 %29.86 in10.0 miENE (60°)13.8 mphMostly Cloudy
3:55 AM76.5 °F70.3 °F81 %29.85 in10.0 miENE (60°)16.1 mphPartly Cloudy
4:55 AM76.5 °F70.0 °F80 %29.85 in10.0 miNE (50°)13.8 mphClear
5:55 AM76.6 °F69.6 °F79 %29.86 in10.0 miENE (60°)15.0 mphPartly Cloudy
6:55 AM76.6 °F70.5 °F81 %29.88 in10.0 miENE (60°)13.8 mphPartly Cloudy
7:27 AM78.8 °F71.6 °F78 %29.89 in10.0 miENE (60°)15.0 mphMostly Cloudy
7:40 AM78.8 °F71.6 °F78 %29.89 in10.0 miENE (60°)17.3 mphScattered Clouds
7:55 AM79.0 °F70.5 °F75 %29.90 in10.0 miENE (60°)19.6 mph24.2 mphPartly Cloudy
8:55 AM81.5 °F71.1 °F70 %29.91 in10.0 miENE (60°)13.8 mphClear
9:38 AM82.4 °F71.6 °F70 %29.91 in10.0 miNE (50°)16.1 mphMostly Cloudy
9:55 AM82.2 °F72.1 °F71 %29.91 in10.0 miENE (60°)17.3 mph21.9 mphOvercast
10:55 AM82.8 °F73.6 °F74 %29.90 in10.0 miNE (50°)18.4 mph25.3 mphOvercast
11:23 AM82.4 °F73.4 °F74 %29.89 in10.0 miENE (60°)21.9 mphOvercast
11:55 AM83.7 °F74.5 °F74 %29.87 in10.0 miENE (60°)17.3 mphScattered Clouds
11:59 AM82.4 °F75.2 °F79 %29.88 in6.0 miENE (60°)23.0 mph32.2 mphRainLight Rain
12:04 PM78.8 °F75.2 °F89 %29.87 in5.0 miENE (60°)19.6 mph32.2 mphRainLight Rain
12:19 PM78.8 °F75.2 °F89 %29.87 in9.0 miENE (70°)13.8 mphMostly Cloudy
12:22 PM80.6 °F77.0 °F89 %29.86 in10.0 miENE (70°)17.3 mphMostly Cloudy
12:24 PM80.6 °F77.0 °F89 %29.86 in10.0 miENE (70°)17.3 mphMostly Cloudy
12:28 PM80.6 °F77.0 °F89 %29.86 in10.0 miENE (70°)16.1 mphMostly Cloudy
12:32 PM80.6 °F75.2 °F84 %29.86 in3.0 miENE (70°)25.3 mph32.2 mphRainRain
12:33 PM78.8 °F75.2 °F89 %29.86 in2.5 miENE (70°)24.2 mph33.4 mphRainRain
12:34 PM78.8 °F75.2 °F89 %29.86 in1.8 miENE (60°)27.6 mph33.4 mphRainRain
12:38 PM77.0 °F73.4 °F89 %29.86 in1.2 miENE (60°)21.9 mph33.4 mphRainLight Rain
12:39 PM77.0 °F73.4 °F89 %29.86 in1.2 miNE (50°)20.7 mph33.4 mphRainLight Rain
12:42 PM77.0 °F73.4 °F89 %29.86 in1.5 miNE (50°)16.1 mph33.4 mphRainLight Rain
12:44 PM77.0 °F75.2 °F94 %29.85 in2.5 miNE (40°)15.0 mphRainRain
12:45 PM77.0 °F75.2 °F94 %29.85 in3.0 miNE (40°)15.0 mphRainLight Rain
12:51 PM78.8 °F75.2 °F89 %29.85 in9.0 miNE (50°)17.3 mphMostly Cloudy
12:54 PM78.8 °F75.2 °F89 %29.85 in9.0 miNE (50°)16.1 mphRainLight Rain
12:55 PM78.6 °F75.7 °F91 %29.85 in8.0 miNE (40°)17.3 mph0.00 inLight Drizzle
1:00 PM78.8 °F75.2 °F89 %29.84 in8.0 miNE (50°)18.4 mphRainLight Rain
1:06 PM78.8 °F75.2 °F89 %29.84 in10.0 miNE (50°)20.7 mphOvercast
1:16 PM78.8 °F75.2 °F89 %29.84 in9.0 miENE (60°)21.9 mph28.8 mphRainLight Rain
1:17 PM78.8 °F75.2 °F89 %29.84 in8.0 miENE (60°)24.2 mph29.9 mphRainLight Rain
1:22 PM78.8 °F75.2 °F89 %29.84 in2.5 miEast (80°)23.0 mph32.2 mphRainHeavy Rain
1:23 PM78.8 °F75.2 °F89 %29.83 in2.0 miEast (80°)21.9 mph32.2 mphRainHeavy Rain
1:24 PM77.0 °F75.2 °F94 %29.84 in1.8 miEast (80°)21.9 mph32.2 mphRainRain
1:26 PM77.0 °F75.2 °F94 %29.84 in1.2 miEast (80°)21.9 mph32.2 mphRainRain
1:28 PM77.0 °F75.2 °F94 %29.84 in1.0 miEast (90°)20.7 mph32.2 mphRainRain
1:33 PM77.0 °F75.2 °F94 %29.84 in1.2 miEast (80°)19.6 mph29.9 mphRainRain
1:36 PM75.2 °F75.2 °F100 %29.84 in1.5 miEast (80°)21.9 mph27.6 mphRainLight Rain
1:37 PM75.2 °F75.2 °F100 %29.84 in1.8 miEast (80°)23.0 mph28.8 mphRainLight Rain
1:38 PM75.2 °F75.2 °F100 %29.84 in2.0 miENE (70°)25.3 mph29.9 mphRainLight Rain
1:41 PM75.2 °F73.4 °F94 %29.84 in2.0 miEast (80°)26.5 mph34.5 mphOvercast
1:42 PM75.2 °F73.4 °F94 %29.84 in2.0 miEast (80°)27.6 mph34.5 mphOvercast
1:44 PM75.2 °F73.4 °F94 %29.84 in1.8 miEast (80°)26.5 mph34.5 mphOvercast
1:50 PM75.2 °F73.4 °F94 %29.83 in1.8 miENE (60°)19.6 mph34.5 mphLight Drizzle
1:52 PM75.2 °F73.4 °F94 %29.83 in2.0 miENE (60°)17.3 mph34.5 mphLight Drizzle
1:53 PM75.2 °F73.4 °F94 %29.83 in2.5 miENE (60°)17.3 mph34.5 mphLight Drizzle
1:54 PM75.2 °F73.4 °F94 %29.83 in3.0 miENE (60°)18.4 mphLight Drizzle
1:55 PM75.7 °F74.3 °F95 %29.83 in3.0 miENE (60°)17.3 mph0.00 inLight Drizzle
1:58 PM77.0 °F75.2 °F94 %29.83 in6.0 miENE (60°)16.1 mphOvercast
2:05 PM78.8 °F75.2 °F89 %29.83 in10.0 miENE (60°)16.1 mphOvercast
2:35 PM80.6 °F75.2 °F84 %29.82 in10.0 miENE (60°)19.6 mphMostly Cloudy
2:54 PM78.8 °F75.2 °F89 %29.82 in8.0 miENE (60°)17.3 mph24.2 mphRainLight Rain
2:55 PM79.5 °F74.5 °F84 %29.82 in7.0 miENE (60°)17.3 mph24.2 mph0.00 inRainLight Rain
3:00 PM78.8 °F75.2 °F89 %29.82 in5.0 miENE (60°)23.0 mph27.6 mphRainLight Rain
3:05 PM78.8 °F73.4 °F83 %29.82 in6.0 miENE (60°)19.6 mph27.6 mphRainLight Rain
3:08 PM78.8 °F75.2 °F89 %29.82 in9.0 miNE (50°)20.7 mph27.6 mphOvercast
3:24 PM78.8 °F75.2 °F89 %29.82 in10.0 miENE (60°)17.3 mphMostly Cloudy
3:37 PM78.8 °F75.2 °F89 %29.81 in10.0 miNE (50°)19.6 mphMostly Cloudy
3:43 PM78.8 °F73.4 °F83 %29.82 in7.0 miENE (60°)20.7 mphRainLight Rain
3:47 PM78.8 °F75.2 °F89 %29.82 in7.0 miENE (60°)16.1 mphRainLight Rain
3:49 PM78.8 °F75.2 °F89 %29.82 in7.0 miENE (60°)17.3 mphRainLight Rain
3:52 PM78.8 °F75.2 °F89 %29.81 in9.0 miENE (60°)19.6 mphMostly Cloudy
3:53 PM78.8 °F75.2 °F89 %29.81 in9.0 miENE (60°)19.6 mphMostly Cloudy
3:55 PM78.3 °F74.5 °F88 %29.82 in10.0 miNE (50°)17.3 mph0.00 inMostly Cloudy
4:02 PM78.8 °F73.4 °F83 %29.82 in10.0 miNE (50°)18.4 mphOvercast
4:34 PM80.6 °F73.4 °F79 %29.81 in10.0 miNE (50°)20.7 mphOvercast
4:41 PM80.6 °F73.4 °F79 %29.81 in10.0 miNE (50°)19.6 mphOvercast
4:55 PM78.6 °F74.1 °F86 %29.83 in7.0 miENE (60°)18.4 mph28.8 mphOvercast
4:58 PM78.8 °F75.2 °F89 %29.83 in6.0 miENE (60°)19.6 mph28.8 mphRainLight Rain
5:04 PM78.8 °F73.4 °F83 %29.83 in8.0 miEast (80°)19.6 mphDrizzle
5:05 PM78.8 °F73.4 °F83 %29.83 in8.0 miEast (80°)18.4 mphDrizzle
5:11 PM77.0 °F75.2 °F94 %29.83 in2.5 miEast (90°)18.4 mph25.3 mphRainLight Rain
5:12 PM77.0 °F75.2 °F94 %29.83 in2.0 miEast (100°)20.7 mph25.3 mphRainLight Rain
5:14 PM77.0 °F75.2 °F94 %29.83 in1.5 miEast (80°)23.0 mphRainLight Rain
5:16 PM77.0 °F75.2 °F94 %29.84 in1.2 miEast (80°)24.2 mph29.9 mphRainLight Rain
5:17 PM77.0 °F75.2 °F94 %29.84 in1.2 miEast (80°)23.0 mph29.9 mphRainLight Rain
5:24 PM75.2 °F73.4 °F94 %29.84 in1.5 miENE (70°)20.7 mph33.4 mphRainLight Rain
5:27 PM75.2 °F73.4 °F94 %29.85 in2.0 miENE (70°)19.6 mph33.4 mphRainLight Rain
5:28 PM75.2 °F73.4 °F94 %29.85 in2.5 miENE (60°)18.4 mph33.4 mphRainLight Rain
5:29 PM75.2 °F73.4 °F94 %29.85 in2.5 miENE (60°)18.4 mph25.3 mphRainLight Rain
5:30 PM75.2 °F73.4 °F94 %29.85 in3.0 miENE (70°)17.3 mph25.3 mphLight Drizzle
5:33 PM75.2 °F73.4 °F94 %29.85 in6.0 miENE (70°)19.6 mph25.3 mphLight Drizzle
5:35 PM75.2 °F73.4 °F94 %29.85 in7.0 miENE (70°)18.4 mphOvercast
5:36 PM75.2 °F73.4 °F94 %29.85 in7.0 miENE (70°)16.1 mphOvercast
5:51 PM75.2 °F73.4 °F94 %29.85 in10.0 miNE (50°)13.8 mph23.0 mphOvercast
5:55 PM75.9 °F72.5 °F89 %29.85 in10.0 miENE (60°)15.0 mph0.00 inOvercast
6:31 PM77.0 °F73.4 °F89 %29.86 in10.0 miENE (70°)16.1 mphOvercast
6:35 PM77.0 °F73.4 °F89 %29.86 in10.0 miENE (70°)23.0 mph31.1 mphMostly Cloudy
6:36 PM77.0 °F73.4 °F89 %29.86 in10.0 miEast (80°)25.3 mph31.1 mphOvercast
6:40 PM77.0 °F73.4 °F89 %29.86 in4.0 miEast (80°)26.5 mph35.7 mphRainLight Rain
6:43 PM75.2 °F73.4 °F94 %29.86 in2.5 miEast (80°)26.5 mph35.7 mphRainLight Rain
6:46 PM75.2 °F73.4 °F94 %29.87 in2.0 miEast (80°)24.2 mph35.7 mphRainLight Rain
6:48 PM75.2 °F73.4 °F94 %29.87 in2.0 miEast (90°)23.0 mph35.7 mphRainLight Rain
6:49 PM75.2 °F73.4 °F94 %29.87 in2.5 miEast (80°)21.9 mph35.7 mphLight Drizzle
6:50 PM75.2 °F73.4 °F94 %29.87 in3.0 miEast (80°)19.6 mph32.2 mphLight Drizzle
6:55 PM74.7 °F72.1 °F92 %29.86 in6.0 miEast (90°)15.0 mph29.9 mph0.00 inLight Drizzle
6:58 PM75.2 °F71.6 °F89 %29.86 in9.0 miEast (80°)12.7 mphOvercast
7:00 PM75.2 °F71.6 °F89 %29.86 in10.0 miEast (80°)12.7 mphMostly Cloudy
7:30 PM77.0 °F75.2 °F94 %29.87 in10.0 miENE (60°)16.1 mphOvercast
7:33 PM77.0 °F75.2 °F94 %29.87 in10.0 miENE (60°)16.1 mphOvercast
7:41 PM77.0 °F75.2 °F94 %29.87 in10.0 miNE (50°)19.6 mphOvercast
7:43 PM77.0 °F73.4 °F89 %29.87 in10.0 miNE (50°)20.7 mph26.5 mphOvercast
7:51 PM77.0 °F73.4 °F89 %29.87 in10.0 miENE (60°)19.6 mph26.5 mphOvercast
7:52 PM77.0 °F73.4 °F89 %29.88 in10.0 miENE (60°)18.4 mph26.5 mphOvercast
7:55 PM77.7 °F74.3 °F89 %29.88 in10.0 miENE (60°)19.6 mph0.00 inOvercast
8:47 PM77.0 °F73.4 °F89 %29.89 in10.0 miENE (60°)20.7 mph25.3 mphMostly Cloudy
8:49 PM77.0 °F73.4 °F89 %29.89 in10.0 miENE (60°)19.6 mph25.3 mphOvercast
8:52 PM77.0 °F73.4 °F89 %29.89 in10.0 miEast (80°)16.1 mph25.3 mphMostly Cloudy
8:55 PM77.7 °F73.6 °F87 %29.89 in10.0 miENE (70°)13.8 mph25.3 mphMostly Cloudy
9:01 PM77.0 °F73.4 °F89 %29.89 in10.0 miENE (70°)16.1 mph20.7 mphOvercast
9:08 PM77.0 °F73.4 °F89 %29.90 in10.0 miENE (60°)17.3 mph23.0 mphOvercast
9:09 PM77.0 °F73.4 °F89 %29.90 in10.0 miENE (60°)17.3 mph23.0 mphOvercast
9:11 PM77.0 °F73.4 °F89 %29.90 in10.0 miENE (60°)18.4 mph23.0 mphMostly Cloudy
9:17 PM77.0 °F73.4 °F89 %29.90 in10.0 miENE (60°)16.1 mphMostly Cloudy
9:30 PM78.8 °F73.4 °F83 %29.90 in10.0 miENE (60°)18.4 mphMostly Cloudy
9:31 PM78.8 °F73.4 °F83 %29.90 in10.0 miENE (60°)16.1 mphMostly Cloudy
9:32 PM78.8 °F73.4 °F83 %29.90 in10.0 miENE (60°)16.1 mphMostly Cloudy
9:37 PM78.8 °F75.2 °F89 %29.90 in10.0 miENE (60°)15.0 mphMostly Cloudy
9:49 PM78.8 °F73.4 °F83 %29.91 in10.0 miENE (60°)17.3 mph24.2 mphMostly Cloudy
9:54 PM78.8 °F73.4 °F83 %29.91 in10.0 miENE (60°)16.1 mphMostly Cloudy
9:55 PM78.1 °F73.9 °F87 %29.91 in10.0 miENE (60°)16.1 mphMostly Cloudy
10:08 PM77.0 °F73.4 °F89 %29.91 in5.0 miENE (70°)20.7 mph28.8 mphRainLight Rain
10:18 PM77.0 °F73.4 °F89 %29.91 in6.0 miENE (60°)16.1 mphRainLight Rain
10:20 PM77.0 °F73.4 °F89 %29.91 in9.0 miENE (60°)17.3 mphMostly Cloudy
10:25 PM77.0 °F73.4 °F89 %29.91 in9.0 miENE (60°)13.8 mphMostly Cloudy
10:26 PM77.0 °F73.4 °F89 %29.91 in8.0 miENE (70°)16.1 mph24.2 mphRainLight Rain
10:37 PM77.0 °F73.4 °F89 %29.91 in9.0 miENE (70°)15.0 mphMostly Cloudy
10:55 PM77.4 °F73.6 °F88 %29.91 in10.0 miENE (70°)16.1 mph0.00 inMostly Cloudy
10:57 PM77.0 °F73.4 °F89 %29.91 in10.0 miENE (70°)17.3 mphMostly Cloudy
11:00 PM77.0 °F73.4 °F89 %29.91 in10.0 miENE (70°)18.4 mph24.2 mphMostly Cloudy
11:23 PM77.0 °F75.2 °F94 %29.91 in10.0 miENE (70°)13.8 mphMostly Cloudy
11:34 PM77.0 °F75.2 °F94 %29.91 in9.0 miENE (70°)19.6 mph24.2 mphRainLight Rain
11:41 PM77.0 °F73.4 °F89 %29.92 in9.0 miENE (60°)15.0 mph24.2 mphRainLight Rain
11:43 PM77.0 °F73.4 °F89 %29.91 in10.0 miENE (60°)15.0 mphMostly Cloudy
11:45 PM77.0 °F73.4 °F89 %29.91 in10.0 miENE (70°)15.0 mphMostly Cloudy
11:55 PM76.8 °F74.7 °F93 %29.91 in10.0 miENE (70°)10.4 mph0.00 inMostly Cloudy
Hourly data recorded from PGUA, located miles away from Pyga Beach, Guam







STORIES FROM OUR PARTNERS